Location: Ellerstadt
(49.4644°N, 8.2615°E)
Time: 19:08:51
(UTC+00:00)

SPOT 3 Rocket - Visible Passes

Search period start: 14 June 2021 00:00
Search period end: 24 June 2021 00:00
Orbit: 779 x 794 km, 98.7° (Epoch: 14 June)

Date Brightness Start Highest point End Pass type
(mag) Time Alt. Az. Time Alt. Az. Time Alt. Az.
14 Jun 5.0 20:55:30 10° SSW 21:00:08 33° W 21:04:50 10° NNW visible
15 Jun 4.1 20:24:23 10° S 20:29:29 59° WSW 20:34:38 10° NNW visible
16 Jun 5.9 21:35:48 10° SW 21:39:00 16° W 21:42:14 10° NW visible
17 Jun 5.2 21:03:43 10° SSW 21:08:09 29° W 21:12:39 10° NW visible
18 Jun 4.3 20:32:27 10° S 20:37:27 51° W 20:42:32 10° NNW visible
19 Jun 6.0 21:44:22 10° WSW 21:47:04 14° W 21:49:45 10° NW visible
20 Jun 5.4 21:11:57 10° SSW 21:16:10 25° W 21:20:27 10° NW visible
21 Jun 4.6 20:40:32 10° S 20:45:27 44° W 20:50:26 10° NNW visible
22 Jun 6.1 21:53:10 10° WSW 21:55:08 12° W 21:57:06 10° WNW visible
23 Jun 5.6 21:20:16 10° SW 21:24:13 22° W 21:28:13 10° NW visible
